Overview Statistics Trail Chart Weather Telemetry Raw packets
 

This is the latest recevied weather packets stored in our database for station/object N0NB. If no packets are shown the sender has not sent any weather packets the latest 10 day(s).

<< 39 40 41 42 43 44 45 >>
Time Temp. Humidity Pressure Rain* Wind** Luminosity Snow
1788054616 27.78° C 66% 1008.2 hPa 0 mm - 0 W/m² -
1788054016 28.33° C 66% 1008.1 hPa 0 mm - 0 W/m² -
1788053416 28.33° C 65% 1008 hPa 0 mm - 0 W/m² -
1788052816 28.89° C 65% 1008 hPa 0 mm - 0 W/m² -
1788052216 28.89° C 64% 1008 hPa 0 mm - 0 W/m² -
1788051616 29.44° C 63% 1008 hPa 0 mm - 4 W/m² -
1788051016 30° C 62% 1008 hPa 0 mm - 12 W/m² -
1788050416 30.56° C 61% 1008 hPa 0 mm - 26 W/m² -
1788049816 31.11° C 61% 1008 hPa 0 mm - 39 W/m² -
1788049216 31.11° C 60% 1008.1 hPa 0 mm - 67 W/m² -
1788048616 32.22° C 59% 1008.1 hPa 0 mm - 95 W/m² -
1788048016 32.22° C 58% 1008.1 hPa 0 mm - 120 W/m² -
1788047427 32.78° C 57% 1008.2 hPa 0 mm - 140 W/m² -
1788046816 33.33° C 56% 1008.2 hPa 0 mm - 171 W/m² -
1788046216 33.33° C 56% 1008.3 hPa 0 mm - 207 W/m² -
1788045616 33.89° C 55% 1008.3 hPa 0 mm - 234 W/m² -
1788045016 33.89° C 55% 1008.4 hPa 0 mm - 263 W/m² -
1788044416 33.89° C 53% 1008.3 hPa 0 mm - 291 W/m² -
1788043815 34.44° C 53% 1008.4 hPa 0 mm - 319 W/m² -
1788043215 34.44° C 53% 1008.5 hPa 0 mm - 347 W/m² -
1788042616 34.44° C 51% 1008.5 hPa 0 mm - 375 W/m² -
1788042015 34.44° C 49% 1008.6 hPa 0 mm - 407 W/m² -
1788041415 34.44° C 50% 1008.6 hPa 0 mm - 433 W/m² -
1788040815 34.44° C 51% 1008.7 hPa 0 mm - 461 W/m² -
1788040216 34.44° C 50% 1008.7 hPa 0 mm - 486 W/m² -

* Rain latest hour (hover to see other rain measurements)
** Current wind speed in m/s (hover to see current wind gust speed)